• In Germany
  • List of Countries
  • For 7 days
  • Water Temperature
  • Satellite Maps
  • Weather Map
  • Weather Widgets
  • user-avatar
    Login

    Hourly Weather Pinsk

    Today, 17 August, Thursday

    Time Temperature Precipitation Wind Pressure Humidity
    00:00 +21°C° 0 mm 1 mps 752 mmHg 76%
    01:00 +21°C° 0 mm 1 mps 752 mmHg 79%
    02:00 +20°C° 0 mm 1 mps 752 mmHg 81%
    03:00 +20°C° 0.1 mm 1 mps 752 mmHg 84%
    04:00 +19°C° 0.1 mm 1 mps 752 mmHg 86%
    05:00 +18°C° 0.1 mm 2 mps 752 mmHg 89%
    06:00 +21°C° 0.1 mm 1 mps 752 mmHg 84%
    07:00 +22°C° 0.1 mm 1 mps 752 mmHg 80%
    08:00 +24°C° 0.1 mm 1 mps 753 mmHg 76%
    09:00 +26°C° 0.6 mm 1 mps 753 mmHg 69%
    10:00 +27°C° 0.6 mm 1 mps 753 mmHg 63%
    11:00 +29°C° 0.6 mm 1 mps 753 mmHg 56%
    12:00 +30°C° 0.2 mm 1 mps 753 mmHg 52%
    13:00 +30°C° 0.2 mm 1 mps 752 mmHg 48%
    14:00 +31°C° 0.2 mm 1 mps 752 mmHg 44%
    15:00 +31°C° 0 mm 1 mps 752 mmHg 45%
    16:00 +31°C° 0 mm 1 mps 752 mmHg 45%
    17:00 +31°C° 0 mm 1 mps 752 mmHg 46%
    18:00 +29°C° 0 mm 1 mps 752 mmHg 52%
    19:00 +27°C° 0 mm 1 mps 752 mmHg 57%
    20:00 +25°C° 0 mm 1 mps 752 mmHg 62%
    21:00 +24°C° 0.7 mm 1 mps 752 mmHg 68%
    22:00 +23°C° 0.7 mm 1 mps 752 mmHg 73%
    23:00 +22°C° 0.7 mm 1 mps 752 mmHg 78%

    Tomorrow, 18 August, Friday

    Time Temperature Precipitation Wind Pressure Humidity
    00:00 +22°C° 0.2 mm 1 mps 752 mmHg 80%
    01:00 +21°C° 0.2 mm 1 mps 752 mmHg 81%
    02:00 +21°C° 0.2 mm 1 mps 752 mmHg 83%
    03:00 +21°C° 0 mm 1 mps 752 mmHg 84%
    04:00 +20°C° 0 mm 1 mps 752 mmHg 85%
    05:00 +20°C° 0 mm 1 mps 752 mmHg 86%
    06:00 +22°C° 0.1 mm 1 mps 752 mmHg 82%
    07:00 +23°C° 0.1 mm 1 mps 752 mmHg 78%
    08:00 +25°C° 0.1 mm 1 mps 752 mmHg 74%
    09:00 +27°C° 0 mm 2 mps 752 mmHg 65%
    10:00 +28°C° 0 mm 2 mps 752 mmHg 57%
    11:00 +30°C° 0 mm 3 mps 752 mmHg 49%
    12:00 +31°C° 0.1 mm 3 mps 752 mmHg 45%
    13:00 +31°C° 0.1 mm 3 mps 752 mmHg 42%
    14:00 +33°C° 0.1 mm 3 mps 752 mmHg 39%
    15:00 +33°C° 0 mm 3 mps 751 mmHg 40%
    16:00 +32°C° 0 mm 2 mps 751 mmHg 41%
    17:00 +31°C° 0 mm 2 mps 751 mmHg 42%
    18:00 +29°C° 0 mm 2 mps 751 mmHg 46%
    19:00 +27°C° 0 mm 2 mps 751 mmHg 50%
    20:00 +25°C° 0 mm 2 mps 751 mmHg 54%
    21:00 +25°C° 0 mm 2 mps 751 mmHg 55%
    22:00 +24°C° 0 mm 2 mps 751 mmHg 56%
    23:00 +23°C° 0 mm 2 mps 751 mmHg 57%

    Day after tomorrow, 19 August, Saturday

    Time Temperature Precipitation Wind Pressure Humidity
    00:00 +21°C° 0 mm 2 mps 751 mmHg 58%
    01:00 +21°C° 0 mm 2 mps 751 mmHg 59%
    02:00 +20°C° 0 mm 2 mps 751 mmHg 60%
    03:00 +20°C° 0 mm 2 mps 751 mmHg 62%
    04:00 +20°C° 0 mm 2 mps 751 mmHg 63%
    05:00 +19°C° 0 mm 2 mps 751 mmHg 65%
    06:00 +21°C° 0 mm 3 mps 751 mmHg 61%
    07:00 +22°C° 0 mm 3 mps 751 mmHg 58%
    08:00 +25°C° 0 mm 4 mps 751 mmHg 54%
    09:00 +27°C° 0 mm 4 mps 751 mmHg 48%
    10:00 +29°C° 0 mm 5 mps 751 mmHg 42%
    11:00 +32°C° 0 mm 5 mps 751 mmHg 35%
    12:00 +33°C° 0 mm 5 mps 751 mmHg 34%
    13:00 +34°C° 0 mm 5 mps 751 mmHg 32%
    14:00 +34°C° 0 mm 5 mps 751 mmHg 30%
    15:00 +34°C° 0 mm 4 mps 750 mmHg 32%
    16:00 +34°C° 0 mm 4 mps 750 mmHg 34%
    17:00 +34°C° 0 mm 3 mps 749 mmHg 36%
    18:00 +30°C° 0 mm 3 mps 749 mmHg 40%
    19:00 +28°C° 0 mm 3 mps 749 mmHg 44%
    20:00 +26°C° 0 mm 3 mps 749 mmHg 48%
    21:00 +25°C° 0 mm 3 mps 749 mmHg 49%
    22:00 +24°C° 0 mm 3 mps 749 mmHg 50%
    23:00 +24°C° 0 mm 3 mps 749 mmHg 51%

    20 August, Sunday

    Time Temperature Precipitation Wind Pressure Humidity
    00:00 +22°C° 0 mm 3 mps 750 mmHg 53%
    01:00 +23°C° 0 mm 2 mps 750 mmHg 55%
    02:00 +21°C° 0 mm 2 mps 750 mmHg 57%
    03:00 +21°C° 0 mm 2 mps 750 mmHg 58%
    04:00 +20°C° 0 mm 2 mps 750 mmHg 60%
    05:00 +20°C° 0 mm 2 mps 750 mmHg 61%
    06:00 +21°C° 0 mm 2 mps 750 mmHg 62%
    07:00 +23°C° 0 mm 2 mps 750 mmHg 62%
    08:00 +23°C° 0 mm 2 mps 750 mmHg 63%
    09:00 +24°C° 0 mm 3 mps 751 mmHg 61%
    10:00 +25°C° 0 mm 3 mps 751 mmHg 59%
    11:00 +26°C° 0 mm 3 mps 751 mmHg 57%
    12:00 +26°C° 0 mm 4 mps 751 mmHg 58%
    13:00 +26°C° 0 mm 5 mps 751 mmHg 59%
    14:00 +24°C° 0 mm 6 mps 751 mmHg 60%
    15:00 +23°C° 0 mm 6 mps 752 mmHg 64%
    16:00 +22°C° 0 mm 6 mps 752 mmHg 67%
    17:00 +20°C° 0 mm 6 mps 752 mmHg 71%
    18:00 +19°C° 0.2 mm 6 mps 752 mmHg 74%
    19:00 +16°C° 0.2 mm 5 mps 753 mmHg 76%
    20:00 +15°C° 0.2 mm 5 mps 753 mmHg 79%
    21:00 +15°C° 0.2 mm 4 mps 753 mmHg 79%
    22:00 +14°C° 0.2 mm 4 mps 754 mmHg 80%
    23:00 +14°C° 0.2 mm 4 mps 754 mmHg 81%

    21 August, Monday

    Time Temperature Precipitation Wind Pressure Humidity
    00:00 +13°C° 0.5 mm 4 mps 754 mmHg 83%
    01:00 +13°C° 0.5 mm 4 mps 754 mmHg 85%
    02:00 +13°C° 0.5 mm 4 mps 754 mmHg 87%
    03:00 +12°C° 0.5 mm 3 mps 754 mmHg 88%
    04:00 +12°C° 0.5 mm 3 mps 754 mmHg 89%
    05:00 +12°C° 0.5 mm 3 mps 754 mmHg 90%
    06:00 +14°C° 0.2 mm 2 mps 754 mmHg 88%
    07:00 +14°C° 0.2 mm 2 mps 755 mmHg 87%
    08:00 +15°C° 0.2 mm 2 mps 755 mmHg 85%
    09:00 +16°C° 0 mm 2 mps 755 mmHg 78%
    10:00 +18°C° 0 mm 2 mps 755 mmHg 72%
    11:00 +19°C° 0 mm 2 mps 755 mmHg 65%
    12:00 +20°C° 0 mm 2 mps 755 mmHg 60%
    13:00 +21°C° 0 mm 2 mps 754 mmHg 55%
    14:00 +24°C° 0 mm 2 mps 754 mmHg 50%
    15:00 +24°C° 0 mm 2 mps 754 mmHg 49%
    16:00 +24°C° 0 mm 2 mps 753 mmHg 49%
    17:00 +24°C° 0 mm 1 mps 753 mmHg 48%
    18:00 +22°C° 0 mm 1 mps 753 mmHg 55%
    19:00 +20°C° 0 mm 1 mps 753 mmHg 63%
    20:00 +18°C° 0 mm 1 mps 753 mmHg 70%
    21:00 +16°C° 0 mm 1 mps 753 mmHg 73%
    22:00 +15°C° 0 mm 1 mps 753 mmHg 76%
    23:00 +15°C° 0 mm 1 mps 753 mmHg 80%

    22 August, Tuesday

    Time Temperature Precipitation Wind Pressure Humidity
    00:00 +14°C° 0 mm 1 mps 752 mmHg 81%
    01:00 +14°C° 0 mm 1 mps 752 mmHg 83%
    02:00 +14°C° 0 mm 1 mps 752 mmHg 84%
    03:00 +13°C° 0 mm 1 mps 752 mmHg 85%
    04:00 +13°C° 0 mm 1 mps 752 mmHg 86%
    05:00 +13°C° 0 mm 1 mps 751 mmHg 87%
    06:00 +15°C° 0 mm 1 mps 751 mmHg 81%
    07:00 +16°C° 0 mm 1 mps 751 mmHg 74%
    08:00 +18°C° 0 mm 2 mps 751 mmHg 68%
    09:00 +20°C° 0 mm 2 mps 750 mmHg 62%
    10:00 +23°C° 0 mm 2 mps 750 mmHg 55%
    11:00 +24°C° 0 mm 2 mps 750 mmHg 49%
    12:00 +25°C° 0 mm 3 mps 749 mmHg 46%
    13:00 +26°C° 0 mm 3 mps 749 mmHg 43%
    14:00 +27°C° 0 mm 3 mps 748 mmHg 40%
    15:00 +27°C° 0 mm 3 mps 748 mmHg 41%
    16:00 +27°C° 0 mm 3 mps 747 mmHg 43%
    17:00 +27°C° 0 mm 3 mps 746 mmHg 44%
    18:00 +25°C° 0 mm 3 mps 746 mmHg 52%
    19:00 +22°C° 0 mm 3 mps 746 mmHg 60%
    20:00 +20°C° 0 mm 2 mps 746 mmHg 68%
    21:00 +19°C° 0 mm 2 mps 746 mmHg 70%
    22:00 +18°C° 0 mm 2 mps 746 mmHg 73%
    23:00 +18°C° 0 mm 3 mps 746 mmHg 75%
    Show more